Weather History for Fryeburg, ME

Change the Weather History Date:

Wednesday, July 3, 2013

  Actual Average Record
Temperature  
Mean Temperature 74 °F -  
Max Temperature 88 °F 78 °F 98 °F (2002)
Min Temperature 60 °F 53 °F 41 °F (2007)
Cooling Degree Days 8    
Growing Degree Days 24 (Base 50)    
Moisture  
Dew Point 65 °F    
Average Humidity 85    
Maximum Humidity 100    
Minimum Humidity 59    
Precipitation  
Precipitation 0.01 in - - ()
Sea Level Pressure  
Sea Level Pressure 30.16 in    
Wind  
Wind Speed 1 mph (NW)    
Max Wind Speed 8 mph    
Max Gust Speed 16 mph    
Visibility 10 miles    
Events Rain    
Averages and records for this station are not official NWS values.
T = Trace of Precipitation, MM = Missing Value Source: NWS Daily Summary

Daily Weather History Graph

Daily Weather History Graph

Search for Another Location

Airport:

Trip Planner

Search our weather history database for the weather conditions in past years. The results will help you decide how hot, cold, wet, or windy it might be!

Date:

Astronomy

Jul. 03, 2013 Rise Set
Actual Time 5:06 AM EDT 8:29 PM EDT
Civil Twilight 4:30 AM EDT 9:05 PM EDT
Nautical Twilight 3:43 AM EDT 9:52 PM EDT
Astronomical Twilight 2:43 AM EDT 10:51 PM EDT
Moon 1:46 AM EDT (7/3) 4:34 PM EDT (7/3)
Length of Visible Light 16h 35m
Length of Day
15h 23m
Waning Crescent, 18% of the Moon is Illuminated
Jul 3
Waning Crescent
Jul 8
New
Jul 15
First Quarter
Jul 22
Full
Jul 29
Last Quarter

Hourly Weather History & Observations

Time (EDT) Temp. Heat Index Dew Point Humidity Pressure Visibility Wind Dir Wind Speed Gust Speed Precip Events Conditions
12:24 AM 60.8 °F - 59.0 °F 94% 30.22 in 10.0 mi Calm Calm - 0.01 in Rain Light Rain
12:54 AM 60.1 °F - 59.0 °F 96% 30.21 in 10.0 mi Calm Calm - 0.01 in Rain Light Rain
1:38 AM 60.8 °F - 59.0 °F 94% 30.19 in 10.0 mi Calm Calm - N/A   Overcast
1:54 AM 60.1 °F - 59.0 °F 96% 30.19 in 10.0 mi Calm Calm - N/A   Overcast
2:54 AM 60.1 °F - 59.0 °F 96% 30.18 in 10.0 mi Calm Calm - N/A   Overcast
3:36 AM 60.8 °F - 59.0 °F 94% 30.16 in 10.0 mi Calm Calm - N/A   Mostly Cloudy
3:54 AM 60.1 °F - 59.0 °F 96% 30.17 in 10.0 mi Calm Calm - N/A   Mostly Cloudy
4:54 AM 60.1 °F - 59.0 °F 96% 30.18 in 10.0 mi Calm Calm - N/A   Mostly Cloudy
5:27 AM 60.8 °F - 59.0 °F 94% 30.17 in 10.0 mi Calm Calm - N/A   Overcast
5:54 AM 61.0 °F - 60.1 °F 97% 30.19 in 10.0 mi Calm Calm - N/A   Mostly Cloudy
6:24 AM 60.8 °F - 60.8 °F 100% 30.18 in 10.0 mi Calm Calm - N/A   Mostly Cloudy
6:54 AM 62.1 °F - 61.0 °F 96% 30.19 in 10.0 mi Calm Calm - N/A   Overcast
7:54 AM 63.0 °F - 61.0 °F 93% 30.20 in 10.0 mi Calm Calm - N/A   Overcast
8:54 AM 64.0 °F - 61.0 °F 90% 30.21 in 10.0 mi Calm Calm - N/A   Overcast
9:54 AM 64.9 °F - 62.1 °F 90% 30.20 in 10.0 mi Calm Calm - N/A   Overcast
10:54 AM 69.1 °F - 64.0 °F 84% 30.19 in 10.0 mi Calm Calm - N/A   Overcast
11:36 AM 71.6 °F - 66.2 °F 83% 30.19 in 10.0 mi Calm Calm - N/A   Scattered Clouds
11:54 AM 73.0 °F - 66.0 °F 79% 30.19 in 10.0 mi ENE 3.5 mph - N/A   Clear
12:54 PM 78.1 °F - 69.1 °F 74% 30.17 in 10.0 mi Calm Calm - N/A   Clear
1:54 PM 82.9 °F 88.0 °F 72.0 °F 69% 30.14 in 10.0 mi NE 5.8 mph - N/A   Clear
2:54 PM 86.0 °F 93.0 °F 73.0 °F 65% 30.12 in 10.0 mi NNW 4.6 mph - N/A   Mostly Cloudy
3:54 PM 87.1 °F 92.8 °F 71.1 °F 59% 30.11 in 10.0 mi Variable 4.6 mph - N/A   Partly Cloudy
4:54 PM 86.0 °F 91.5 °F 71.1 °F 61% 30.10 in 10.0 mi Variable 5.8 mph - N/A   Clear
5:54 PM 84.9 °F 90.1 °F 71.1 °F 63% 30.08 in 10.0 mi SSW 5.8 mph 16.1 mph N/A   Clear
6:54 PM 84.0 °F 87.8 °F 69.1 °F 61% 30.09 in 10.0 mi SW 8.1 mph - N/A   Clear
7:54 PM 80.1 °F 83.2 °F 70.0 °F 71% 30.12 in 10.0 mi Calm Calm - N/A   Overcast
8:54 PM 77.0 °F - 72.0 °F 84% 30.14 in 10.0 mi Calm Calm - N/A   Mostly Cloudy
9:54 PM 73.0 °F - 71.1 °F 93% 30.16 in 10.0 mi WNW 3.5 mph - N/A   Partly Cloudy
10:54 PM 72.0 °F - 71.1 °F 97% 30.15 in 10.0 mi Calm Calm - N/A   Clear
11:54 PM 71.1 °F - 70.0 °F 96% 30.15 in 8.0 mi Calm Calm - N/A   Clear